When you browse on this site, cookies collect data to enhance your experience and personalize the content and advertising you see.
Visit our Privacy Policy to learn more. By continuing to use the site, you agree to this use of cookies and data.
EN

Hourly Weather Godziszowa

Today, 25 September, Friday

Time Temperature Precipitation Wind Pressure Humidity
00:00 +16°C° 0 mm 2 mps 737 mmHg 83%
01:00 +16°C° 0 mm 3 mps 736 mmHg 83%
02:00 +16°C° 0 mm 3 mps 735 mmHg 83%
03:00 +16°C° 0 mm 3 mps 735 mmHg 83%
04:00 +14°C° 0 mm 3 mps 734 mmHg 82%
05:00 +16°C° 0.1 mm 3 mps 733 mmHg 81%
06:00 +16°C° 0.1 mm 3 mps 733 mmHg 80%
07:00 +17°C° 0.1 mm 3 mps 732 mmHg 79%
08:00 +17°C° 0.5 mm 4 mps 732 mmHg 80%
09:00 +17°C° 0.5 mm 4 mps 732 mmHg 81%
10:00 +17°C° 0.5 mm 5 mps 731 mmHg 82%
11:00 +17°C° 1.2 mm 4 mps 731 mmHg 85%
12:00 +16°C° 1.2 mm 3 mps 731 mmHg 88%
13:00 +14°C° 1.2 mm 3 mps 731 mmHg 91%
14:00 +15°C° 0.3 mm 2 mps 731 mmHg 91%
15:00 +15°C° 0.3 mm 1 mps 731 mmHg 91%
16:00 +15°C° 0.3 mm 1 mps 731 mmHg 91%
17:00 +15°C° 0.3 mm 1 mps 731 mmHg 91%
18:00 +15°C° 0.3 mm 1 mps 731 mmHg 91%
19:00 +14°C° 0.3 mm 2 mps 731 mmHg 91%
20:00 +14°C° 0.1 mm 2 mps 731 mmHg 90%
21:00 +14°C° 0.1 mm 2 mps 731 mmHg 90%
22:00 +14°C° 0.1 mm 2 mps 731 mmHg 89%
23:00 +13°C° 0.1 mm 2 mps 731 mmHg 90%

Tomorrow, 26 September, Saturday

Time Temperature Precipitation Wind Pressure Humidity
00:00 +13°C° 0.1 mm 2 mps 730 mmHg 91%
01:00 +12°C° 0.1 mm 3 mps 730 mmHg 92%
02:00 +12°C° 0.8 mm 3 mps 729 mmHg 93%
03:00 +12°C° 0.8 mm 4 mps 728 mmHg 94%
04:00 +12°C° 0.8 mm 4 mps 727 mmHg 95%
05:00 +12°C° 3.5 mm 5 mps 727 mmHg 95%
06:00 +12°C° 3.5 mm 5 mps 726 mmHg 95%
07:00 +12°C° 3.5 mm 5 mps 726 mmHg 95%
08:00 +13°C° 1.8 mm 5 mps 726 mmHg 95%
09:00 +14°C° 1.8 mm 4 mps 726 mmHg 95%
10:00 +14°C° 1.8 mm 3 mps 726 mmHg 94%
11:00 +15°C° 0.2 mm 4 mps 727 mmHg 88%
12:00 +15°C° 0.2 mm 5 mps 727 mmHg 82%
13:00 +15°C° 0.2 mm 6 mps 727 mmHg 75%
14:00 +14°C° 0 mm 6 mps 728 mmHg 74%
15:00 +13°C° 0 mm 6 mps 728 mmHg 73%
16:00 +11°C° 0 mm 6 mps 729 mmHg 72%
17:00 +10°C° 0 mm 6 mps 729 mmHg 74%
18:00 +9°C° 0 mm 5 mps 730 mmHg 77%
19:00 +8°C° 0 mm 4 mps 730 mmHg 79%
20:00 +7°C° 0 mm 4 mps 731 mmHg 79%
21:00 +8°C° 0 mm 3 mps 732 mmHg 80%
22:00 +8°C° 0 mm 3 mps 732 mmHg 81%
23:00 +8°C° 0 mm 3 mps 733 mmHg 82%

Day after tomorrow, 27 September, Sunday

Time Temperature Precipitation Wind Pressure Humidity
00:00 +7°C° 0 mm 3 mps 733 mmHg 83%
01:00 +7°C° 0 mm 2 mps 733 mmHg 84%
02:00 +7°C° 0 mm 2 mps 734 mmHg 84%
03:00 +7°C° 0 mm 2 mps 734 mmHg 85%
04:00 +7°C° 0 mm 2 mps 734 mmHg 85%
05:00 +7°C° 0 mm 2 mps 734 mmHg 84%
06:00 +8°C° 0 mm 2 mps 735 mmHg 83%
07:00 +8°C° 0 mm 2 mps 735 mmHg 82%
08:00 +10°C° 0 mm 2 mps 735 mmHg 76%
09:00 +11°C° 0 mm 3 mps 736 mmHg 70%
10:00 +12°C° 0 mm 3 mps 736 mmHg 65%
11:00 +12°C° 0 mm 3 mps 736 mmHg 65%
12:00 +13°C° 0 mm 3 mps 736 mmHg 66%
13:00 +13°C° 0 mm 3 mps 736 mmHg 66%
14:00 +12°C° 0.1 mm 3 mps 736 mmHg 69%
15:00 +12°C° 0.1 mm 4 mps 736 mmHg 72%
16:00 +12°C° 0.1 mm 4 mps 736 mmHg 75%
17:00 +12°C° 0.2 mm 4 mps 736 mmHg 78%
18:00 +11°C° 0.2 mm 3 mps 736 mmHg 82%
19:00 +11°C° 0.2 mm 3 mps 737 mmHg 85%
20:00 +11°C° 0.2 mm 4 mps 737 mmHg 84%
21:00 +11°C° 0.2 mm 4 mps 737 mmHg 83%
22:00 +10°C° 0.2 mm 4 mps 737 mmHg 83%
23:00 +10°C° 0.2 mm 4 mps 737 mmHg 82%

28 September, Monday

Time Temperature Precipitation Wind Pressure Humidity
00:00 +10°C° 0.2 mm 4 mps 737 mmHg 82%
01:00 +10°C° 0.2 mm 4 mps 737 mmHg 82%
02:00 +10°C° 0.2 mm 4 mps 737 mmHg 82%
03:00 +10°C° 0.2 mm 4 mps 737 mmHg 82%
04:00 +9°C° 0.2 mm 5 mps 737 mmHg 82%
05:00 +9°C° 0.3 mm 5 mps 737 mmHg 81%
06:00 +10°C° 0.3 mm 4 mps 737 mmHg 80%
07:00 +8°C° 0.3 mm 4 mps 737 mmHg 80%
08:00 +10°C° 0.2 mm 4 mps 738 mmHg 79%
09:00 +10°C° 0.2 mm 4 mps 738 mmHg 78%
10:00 +10°C° 0.2 mm 3 mps 738 mmHg 77%
11:00 +11°C° 0.2 mm 3 mps 738 mmHg 76%
12:00 +11°C° 0.2 mm 4 mps 738 mmHg 75%
13:00 +12°C° 0.2 mm 4 mps 738 mmHg 74%
14:00 +12°C° 0.3 mm 3 mps 738 mmHg 75%
15:00 +12°C° 0.3 mm 3 mps 738 mmHg 76%
16:00 +12°C° 0.3 mm 3 mps 738 mmHg 76%
17:00 +11°C° 0.5 mm 3 mps 739 mmHg 79%
18:00 +11°C° 0.5 mm 4 mps 739 mmHg 81%
19:00 +11°C° 0.5 mm 4 mps 739 mmHg 84%
20:00 +11°C° 0.1 mm 4 mps 739 mmHg 84%
21:00 +11°C° 0.1 mm 4 mps 739 mmHg 85%
22:00 +11°C° 0.1 mm 4 mps 739 mmHg 85%
23:00 +11°C° 0.1 mm 3 mps 739 mmHg 86%

29 September, Tuesday

Time Temperature Precipitation Wind Pressure Humidity
00:00 +11°C° 0.1 mm 3 mps 739 mmHg 87%
01:00 +11°C° 0.1 mm 3 mps 739 mmHg 88%
02:00 +11°C° 0.1 mm 3 mps 739 mmHg 88%
03:00 +11°C° 0.1 mm 3 mps 739 mmHg 89%
04:00 +12°C° 0.1 mm 2 mps 739 mmHg 89%
05:00 +11°C° 0.1 mm 3 mps 739 mmHg 90%
06:00 +11°C° 0.1 mm 3 mps 740 mmHg 91%
07:00 +11°C° 0.1 mm 4 mps 740 mmHg 93%
08:00 +12°C° 0.1 mm 4 mps 740 mmHg 88%
09:00 +13°C° 0.1 mm 4 mps 740 mmHg 84%
10:00 +13°C° 0.1 mm 4 mps 740 mmHg 80%
11:00 +14°C° 0.2 mm 5 mps 741 mmHg 78%
12:00 +14°C° 0.2 mm 5 mps 741 mmHg 75%
13:00 +15°C° 0.2 mm 5 mps 741 mmHg 72%
14:00 +14°C° 0.4 mm 5 mps 741 mmHg 76%
15:00 +14°C° 0.4 mm 5 mps 741 mmHg 79%
16:00 +13°C° 0.4 mm 5 mps 741 mmHg 82%
17:00 +13°C° 0.2 mm 5 mps 742 mmHg 85%
18:00 +13°C° 0.2 mm 5 mps 742 mmHg 87%
19:00 +12°C° 0.2 mm 4 mps 743 mmHg 89%
20:00 +12°C° 0.1 mm 4 mps 743 mmHg 91%
21:00 +12°C° 0.1 mm 4 mps 743 mmHg 93%
22:00 +11°C° 0.1 mm 3 mps 744 mmHg 96%
23:00 +11°C° 0 mm 3 mps 744 mmHg 96%

30 September, Wednesday

Time Temperature Precipitation Wind Pressure Humidity
00:00 +11°C° 0 mm 3 mps 744 mmHg 96%
01:00 +11°C° 0 mm 3 mps 744 mmHg 96%
02:00 +11°C° 0 mm 3 mps 744 mmHg 96%
03:00 +10°C° 0 mm 3 mps 744 mmHg 96%
04:00 +10°C° 0 mm 2 mps 744 mmHg 96%
05:00 +10°C° 0 mm 2 mps 744 mmHg 96%
06:00 +12°C° 0 mm 2 mps 744 mmHg 95%
07:00 +11°C° 0 mm 3 mps 744 mmHg 95%
08:00 +12°C° 0 mm 3 mps 744 mmHg 90%
09:00 +13°C° 0 mm 4 mps 744 mmHg 86%
10:00 +14°C° 0 mm 4 mps 744 mmHg 81%
11:00 +14°C° 0 mm 4 mps 744 mmHg 78%
12:00 +15°C° 0 mm 4 mps 744 mmHg 75%
13:00 +17°C° 0 mm 4 mps 744 mmHg 73%
14:00 +15°C° 0.1 mm 4 mps 744 mmHg 73%
15:00 +15°C° 0.1 mm 4 mps 743 mmHg 73%
16:00 +15°C° 0.1 mm 4 mps 743 mmHg 74%
17:00 +14°C° 0 mm 4 mps 743 mmHg 78%
18:00 +13°C° 0 mm 3 mps 743 mmHg 82%
19:00 +12°C° 0 mm 2 mps 743 mmHg 87%
20:00 +12°C° 0 mm 2 mps 743 mmHg 87%
21:00 +11°C° 0 mm 3 mps 743 mmHg 87%
22:00 +10°C° 0 mm 3 mps 743 mmHg 88%
23:00 +10°C° 0 mm 3 mps 743 mmHg 88%
Show more